Location: Gaast
(52.9002°N, 5.8891°E)
Time: 06:43:30
(UTC+00:00)

Cosmos 1484 Rocket - Pass Details

Date: 18 November 2025
Orbit: 442 x 473 km, 97.6° (Epoch: 11 December)

Event Time Altitude Azimuth Distance (km) Brightness Sun altitude
Rises 16:25:27 0° 172° (S) 2,508 6.4 -7.3°
Reaches altitude 10° 16:27:30 10° 175° (S) 1,640 5.5 -7.6°
Maximum altitude 16:31:00 64° 258° (WSW) 536 3.1 -8.0°
Drops below altitude 10° 16:34:34 10° 340° (NNW) 1,664 5.3 -8.5°
Sets 16:36:39 0° 344° (NNW) 2,550 6.2 -8.8°
